Location: Julian California
(33.0790°N, 116.6010°W)
Time: 23:17:51
(UTC-07:00)

ATLAS CENTAUR R/B - Pass Details

Date: 12 July 2018
Orbit: 460 x 692 km, 64.7° (Epoch: 14 July)

Event Time Altitude Azimuth Distance (km) Brightness Sun altitude
Rises 20:26:26 0° 165° (SSE) 2,494 4.2 -6.2°
Reaches altitude 10° 20:29:31 10° 135° (SE) 1,655 3.1 -6.7°
Maximum altitude 20:31:11 13° 108° (ESE) 1,515 2.9 -7.0°
Drops below altitude 10° 20:32:53 10° 81° (E) 1,705 3.4 -7.3°
Sets 20:36:09 0° 52° (NE) 2,649 4.6 -7.9°
